sat.trackr.live / text

‹ back to catalog

STARLINK-30808

NORAD 58250 · 2023-171W

PAYLOAD ACTIVE UNKNOWN

§ Identity

Operator
Country
US
Launch date
2023-11-08
Launch site
AFETR
Launch vehicle
Mass (kg)
RCS (m²)

Purposes: comms

External: N2YO · Heavens-Above · Gunter

§ Orbital elements

Epoch: 2026-09-20T08:36:04.200480Z

Period
93.67 min
Inclination
42.9977°
Eccentricity
0.0008254
Mean motion
15.37333388 rev/d
Perigee alt
448.4 km
Apogee alt
459.6 km
Semi-major
6,832.1 km
B*
1.5621e-3
RAAN
261.7484°
Arg perigee
98.0731°
Mean anomaly
262.1061°
Rev number
15,955

§ Raw data

STARLINK-308081 58250U 23171W   26263.35838195  .00058646  00000+0  15621-2 0  99902 58250  42.9977 261.7484 0008254  98.0731 262.1061 15.37333388159556

JSON: /api/v1/satellites/58250 · /tle

For live sub-satellite position, see the globe view (requires WebGL).

§ Visibility from observer

Set your observer location to see the next 7 days of passes ≥ 10°. The values pass through the URL so the page stays shareable.

No JS? Fill the form by hand. The geolocation button needs JavaScript.